TimeEDT,TemperatureF,Dew PointF,Humidity,Sea Level PressureIn,VisibilityMPH,Wind Direction,Wind SpeedMPH,Gust SpeedMPH,PrecipitationIn,Events,Conditions,WindDirDegrees,DateUTC
12:56 AM,48.0,48.0,100,30.08,10.0,Calm,Calm,-,N/A,,Clear,0,2011-10-22 04:56:00
1:56 AM,52.0,48.9,89,30.08,10.0,NNW,3.5,-,N/A,,Clear,340,2011-10-22 05:56:00
2:56 AM,50.0,46.9,89,30.07,10.0,NNW,3.5,-,N/A,,Clear,340,2011-10-22 06:56:00
3:56 AM,51.1,46.9,86,30.06,10.0,NNW,4.6,-,N/A,,Clear,340,2011-10-22 07:56:00
4:56 AM,50.0,46.9,89,30.07,10.0,Calm,Calm,-,N/A,,Clear,0,2011-10-22 08:56:00
5:56 AM,51.1,48.0,89,30.08,10.0,North,4.6,-,N/A,,Clear,350,2011-10-22 09:56:00
6:56 AM,52.0,46.9,83,30.08,10.0,North,3.5,-,N/A,,Partly Cloudy,10,2011-10-22 10:56:00
7:56 AM,54.0,50.0,86,30.09,10.0,NNE,5.8,-,N/A,,Partly Cloudy,20,2011-10-22 11:56:00
8:56 AM,59.0,54.0,83,30.09,10.0,NNE,9.2,-,N/A,,Clear,20,2011-10-22 12:56:00
9:56 AM,64.0,53.1,67,30.09,10.0,North,11.5,-,N/A,,Clear,10,2011-10-22 13:56:00
10:56 AM,66.9,53.1,61,30.10,10.0,North,12.7,-,N/A,,Clear,10,2011-10-22 14:56:00
12:56 PM,69.1,54.0,58,30.08,10.0,NNE,10.4,-,N/A,,Overcast,20,2011-10-22 16:56:00
1:56 PM,70.0,54.0,57,30.06,10.0,NNE,12.7,17.3,N/A,,Mostly Cloudy,20,2011-10-22 17:56:00
2:56 PM,69.1,53.1,57,30.04,10.0,NNE,11.5,-,N/A,,Mostly Cloudy,20,2011-10-22 18:56:00
3:56 PM,66.9,53.1,61,30.05,10.0,NNE,8.1,-,N/A,,Scattered Clouds,30,2011-10-22 19:56:00
4:56 PM,66.0,54.0,65,30.05,10.0,NE,9.2,-,N/A,,Partly Cloudy,40,2011-10-22 20:56:00
5:56 PM,64.9,54.0,68,30.05,10.0,NE,8.1,-,N/A,,Mostly Cloudy,50,2011-10-22 21:56:00
7:56 PM,62.1,55.0,78,30.07,10.0,NE,4.6,-,N/A,,Overcast,40,2011-10-22 23:56:00
8:56 PM,60.1,54.0,80,30.07,10.0,NE,4.6,-,N/A,,Clear,40,2011-10-23 00:56:00
9:56 PM,57.0,54.0,89,30.08,10.0,NNE,4.6,-,N/A,,Partly Cloudy,20,2011-10-23 01:56:00
10:56 PM,57.9,54.0,87,30.08,10.0,NNE,5.8,-,N/A,,Mostly Cloudy,30,2011-10-23 02:56:00
11:56 PM,57.0,54.0,89,30.08,10.0,North,6.9,-,N/A,,Partly Cloudy,10,2011-10-23 03:56:00